Wind_Speed
5 4 2 1 1 2 3 4 4 6 5 4 5 5 5 6 8 8 9 9 10 11 11 12 12 14 16 17 18 18 19 20 20 20 21 22 23 25 25 24 24 24 24 25 26 27 28 28 29
8 7 5 3 2 4 4 4 3 4 5 6 5 5 6 6 7 7 8 10 10 12 13 14 14 15 16 17 18 18 19 20 20 21 22 23 23 23 23 23 23 24 25 27 28 29 30 31 31
9 8 7 5 4 6 6 5 5 4 5 7 7 5 6 7 7 9 10 11 12 14 15 15 15 16 17 18 19 19 19 20 20 21 22 22 21 21 21 22 23 25 26 28 28 30 31 32 34
11 10 8 6 6 7 6 6 6 6 6 6 6 3 4 7 8 9 11 12 14 14 15 15 15 16 17 19 19 20 21 21 21 20 19 19 18 19 21 23 25 25 26 28 30 31 31 30 31
12 11 9 7 8 9 8 7 7 6 4 6 5 3 3 6 8 10 11 13 13 13 14 15 16 17 18 19 20 21 22 21 20 17 17 18 19 21 22 24 24 27 30 32 31 30 32 35 36
13 11 9 8 9 9 7 7 7 5 2 4 2 5 6 8 10 12 13 14 15 16 16 16 16 17 18 19 19 19 19 18 16 16 17 19 21 23 23 25 27 31 32 33 31 35 38 40 41
14 11 9 9 9 10 8 6 6 5 3 2 4 7 6 9 11 13 13 14 15 15 16 17 17 17 16 16 17 18 17 16 15 16 18 20 22 23 25 27 30 32 33 31 35 39 43 43 44
16 13 10 11 12 11 8 8 7 5 5 4 5 6 5 8 12 15 17 17 16 15 16 17 17 20 21 20 20 19 17 15 16 17 19 21 21 23 26 28 32 35 34 37 40 43 44 44 46
18 14 13 14 14 12 10 9 8 7 7 6 5 4 4 8 12 15 17 18 18 18 17 19 20 20 21 20 20 19 17 16 18 19 20 21 22 25 27 29 32 34 39 43 44 45 45 44 47
20 16 17 16 17 14 13 10 9 9 9 7 5 3 4 7 11 14 16 18 19 19 18 19 20 19 20 21 20 18 18 17 19 20 20 21 24 26 26 29 33 37 44 47 46 45 44 47 53
22 19 21 19 18 17 16 13 11 11 10 8 4 1 2 5 8 12 15 18 21 21 20 21 22 21 21 20 20 20 19 19 20 21 21 23 26 27 29 31 37 44 49 52 47 46 47 54 45
25 25 23 22 22 20 18 17 15 13 12 8 5 3 4 6 8 12 16 18 21 22 22 22 21 21 22 22 21 21 20 19 21 23 23 25 27 31 32 35 41 47 53 55 49 47 52 50 46
29 29 26 25 24 23 22 20 18 17 14 10 8 7 8 7 9 12 14 17 19 21 24 23 22 22 23 23 23 22 20 20 22 25 25 28 30 34 37 42 44 50 57 55 50 48 54 48 49
31 31 30 26 28 25 25 24 19 20 15 13 12 11 11 11 12 13 14 16 18 20 22 24 23 23 24 25 24 23 22 21 23 26 26 29 33 36 39 43 46 53 58 54 50 50 55 50 48
36 34 33 30 30 27 28 27 23 21 20 16 15 14 14 15 15 16 16 16 18 20 23 24 25 25 25 25 24 22 22 22 24 26 27 30 34 38 42 45 49 54 56 53 51 54 55 53 48
40 39 36 32 32 30 32 28 29 27 23 20 18 17 18 19 17 19 18 18 19 21 23 25 26 26 26 25 23 22 22 23 24 26 28 30 34 38 42 45 49 52 54 52 51 56 55 52 41
44 40 36 35 36 35 35 30 32 31 28 24 22 20 20 23 22 22 20 19 21 23 27 29 28 26 26 25 24 23 23 23 25 27 28 31 34 37 39 42 46 49 49 49 50 52 53 49 24
41 39 37 39 40 38 37 33 35 33 31 26 25 23 23 25 26 24 22 22 23 24 30 34 29 28 26 25 25 25 24 24 26 28 29 31 34 36 39 42 44 47 46 47 50 52 48 41 17
45 43 43 43 42 41 38 35 36 38 32 32 31 30 30 30 29 28 26 26 26 25 25 31 29 29 28 26 26 26 25 24 26 28 29 32 33 35 38 41 42 45 44 45 48 48 41 32 18
49 48 47 45 45 43 41 38 38 41 36 36 35 34 32 30 31 31 29 28 28 28 27 27 28 29 28 26 27 26 25 25 25 27 29 31 33 34 36 40 41 42 42 43 42 44 37 27 22
49 49 46 45 45 45 44 41 38 41 41 37 34 34 34 33 33 31 31 30 29 28 28 27 28 28 27 26 27 25 25 25 26 27 28 30 32 32 35 39 39 41 38 40 38 38 28 27 27
52 48 46 48 48 49 46 46 40 41 42 37 35 34 35 34 33 32 32 32 30 30 28 29 29 28 27 26 26 25 25 25 26 26 27 29 31 31 33 37 37 38 36 37 33 35 22 23 24
52 49 49 49 49 51 50 51 43 41 41 39 36 34 35 35 34 34 33 32 31 30 30 30 30 28 27 27 25 25 25 26 26 25 26 29 30 30 31 34 34 35 34 33 28 31 24 20 20
56 54 54 53 53 56 52 51 49 41 37 38 38 37 36 35 35 34 34 33 31 31 31 31 29 28 27 26 26 24 24 25 25 25 25 27 28 29 30 32 33 33 31 29 23 26 25 21 20
58 57 55 58 59 58 55 50 49 42 38 40 39 38 37 35 34 34 33 32 32 32 32 31 29 28 27 27 26 25 25 24 25 25 25 26 26 27 28 29 30 31 30 26 19 15 22 16 17
52 50 51 54 56 55 54 55 51 46 41 39 40 38 36 34 34 34 33 32 32 33 33 31 29 27 28 28 25 25 25 24 25 26 26 25 24 25 26 27 27 29 27 26 19 10 10 15 12
53 52 50 50 52 53 53 53 50 48 43 38 36 36 36 34 33 34 33 32 33 34 32 30 29 27 29 29 26 26 26 25 25 26 26 23 23 24 24 25 24 25 24 25 20 12 5 8 14
57 53 52 52 53 53 52 51 48 43 36 35 34 34 34 33 33 34 34 34 35 32 31 30 28 28 30 29 28 28 27 26 26 27 27 23 22 22 23 23 22 20 20 22 22 15 7 9 11
63 60 58 54 53 52 52 51 44 38 36 37 36 34 33 32 33 34 34 35 34 32 31 31 30 32 30 30 29 29 28 26 26 27 26 24 21 21 19 21 20 16 16 21 21 18 10 4 9
63 59 56 56 57 56 54 50 46 45 41 38 37 34 32 33 33 34 35 34 32 30 30 34 35 36 32 31 32 30 29 27 28 27 27 26 23 22 20 20 19 14 14 19 19 18 12 7 4
Wind_Direction
193 193 185 205 301 348 350 6 30 27 17 22 31 36 36 24 10 357 355 352 341 328 321 310 304 303 301 301 300 298 297 299 304 306 307 309 311 311 309 308 306 304 303 299 297 295 293 289 285
212 212 215 224 252 290 311 324 348 16 337 332 341 7 358 360 358 349 342 336 328 323 319 312 312 306 302 299 296 297 299 302 303 306 309 309 307 308 307 306 305 304 302 301 301 299 296 292 287
221 223 229 228 245 271 291 313 316 327 314 317 324 341 341 335 335 341 340 334 327 330 327 319 317 312 308 307 305 307 305 306 309 312 311 309 310 307 307 305 303 303 302 301 301 300 299 296 294
225 231 233 236 242 263 264 280 294 301 303 302 304 328 330 330 337 339 335 334 337 337 331 329 324 320 319 315 314 312 311 312 317 314 311 311 309 306 305 305 304 303 302 303 303 303 302 305 305
225 231 233 232 235 248 267 273 269 273 280 287 298 33 360 343 345 341 337 332 331 335 337 336 334 328 322 319 319 316 316 318 317 317 312 311 309 308 308 306 306 306 310 308 307 313 311 304 300
227 228 232 232 238 252 252 254 254 257 264 232 268 67 40 20 11 357 347 341 337 339 337 339 334 329 325 322 320 317 317 318 317 313 311 313 313 313 312 311 313 314 311 311 312 309 306 302 298
231 230 228 232 236 242 245 243 232 228 219 204 96 83 50 36 29 20 3 355 346 340 339 338 333 327 322 321 318 318 318 318 314 310 310 315 316 314 312 315 317 314 310 309 307 304 299 297 295
230 229 229 228 231 235 227 225 209 198 193 166 119 89 59 44 33 29 18 7 356 349 343 338 338 335 332 329 323 322 319 317 312 311 314 313 314 313 316 317 318 320 315 313 307 304 302 296 293
232 227 228 229 231 233 219 214 203 197 192 192 160 116 70 42 34 29 23 14 2 356 349 343 340 340 334 329 326 321 320 318 313 312 315 313 312 313 318 322 323 322 320 320 314 305 301 299 297
233 223 229 227 232 229 221 213 211 203 197 202 178 145 59 34 25 23 23 18 11 2 352 344 341 341 335 331 325 322 318 317 315 314 312 310 311 316 321 324 324 325 323 323 315 307 301 299 303
231 225 228 227 229 229 221 213 208 211 203 202 203 223 348 4 9 12 18 17 15 12 4 353 346 342 336 333 327 321 318 317 314 313 309 309 312 314 321 323 326 325 325 328 318 310 307 311 307
231 229 227 230 227 228 224 218 216 207 203 206 224 269 307 331 356 3 6 9 9 9 8 358 348 341 337 334 329 322 318 317 314 311 308 309 310 313 317 320 326 325 326 327 320 316 317 308 300
227 232 231 228 230 229 230 225 220 216 211 221 248 268 288 311 338 347 354 355 1 1 360 357 349 342 338 334 329 325 320 319 316 310 308 308 310 313 315 319 322 324 325 328 325 322 319 313 310
229 229 233 226 234 226 231 232 224 226 225 238 255 275 294 307 323 331 338 342 349 352 352 352 349 344 340 333 330 327 322 319 315 312 311 309 310 313 317 322 322 324 328 329 328 322 322 320 313
230 229 231 229 233 228 231 233 227 237 236 247 258 269 286 299 308 314 320 329 339 344 345 346 345 343 339 333 330 325 320 316 317 315 313 311 310 312 317 320 322 323 330 332 330 327 326 325 313
234 231 230 230 231 231 231 229 234 241 243 246 259 264 281 291 296 301 307 320 327 333 337 339 340 340 337 332 328 324 318 316 318 317 315 315 315 319 322 323 323 327 334 336 332 332 331 326 322
235 234 234 234 234 232 233 226 235 239 243 245 255 267 274 285 290 292 300 311 319 328 332 332 334 334 334 330 326 322 316 317 317 318 319 319 323 326 329 327 327 335 338 340 337 337 337 331 335
239 240 238 237 236 236 232 227 232 238 239 244 256 262 270 280 284 283 293 303 310 317 320 322 325 328 330 327 323 318 315 316 316 319 322 321 326 328 334 332 334 342 343 343 342 344 342 350 13
236 235 235 236 239 239 237 236 238 238 238 250 256 261 263 274 280 280 284 292 299 305 312 315 318 323 325 324 321 315 315 318 317 320 325 325 328 332 337 335 339 347 347 348 350 350 351 9 47
234 234 235 236 238 239 239 236 241 247 244 246 251 253 255 260 266 271 279 288 296 302 305 310 313 317 319 319 318 314 317 319 319 321 325 327 330 334 340 338 343 352 353 354 359 359 2 35 62
236 237 237 238 240 242 241 238 238 245 251 248 248 252 256 259 264 269 275 283 290 295 299 304 307 310 313 314 316 314 316 320 321 323 327 329 333 335 341 340 345 357 357 360 8 10 18 45 73
236 236 238 237 237 240 242 242 239 242 249 252 251 251 255 259 263 267 273 281 285 288 293 298 301 305 307 310 313 313 315 319 323 325 329 330 333 336 343 343 348 1 1 6 17 22 30 57 74
238 239 239 240 240 239 239 243 234 242 246 254 256 256 256 259 263 268 272 276 280 284 288 293 297 301 303 306 310 310 312 317 323 326 329 330 333 337 343 344 350 4 5 10 23 32 44 77 80
235 237 239 240 241 242 241 243 242 240 247 253 257 257 258 259 261 265 269 273 277 281 284 287 293 297 299 301 305 305 308 316 322 326 330 331 334 338 342 345 351 3 7 12 28 40 51 85 87
234 233 237 240 240 243 246 248 251 249 249 252 254 257 259 261 263 265 266 270 275 278 281 285 290 293 293 297 299 302 304 312 317 323 328 330 332 338 339 345 351 1 7 10 24 52 51 77 94
240 240 242 246 247 249 251 249 251 255 253 250 254 255 256 257 261 264 266 269 272 274 279 284 286 287 290 290 296 297 299 305 312 317 327 327 328 336 335 345 349 1 10 10 14 47 64 73 106
235 236 238 243 247 246 247 250 250 251 251 251 251 253 255 256 259 262 265 268 270 273 278 281 281 283 291 290 290 292 293 297 307 312 323 327 326 332 333 341 349 360 9 14 9 24 81 110 102
234 236 236 238 242 244 246 247 249 249 251 250 250 249 251 255 258 261 264 265 267 271 274 275 274 285 286 284 284 289 289 293 302 308 316 323 325 328 330 333 347 354 8 16 11 8 42 151 134
232 232 234 235 237 243 247 247 248 252 250 249 248 250 252 255 257 259 262 263 267 270 270 269 277 284 279 278 280 286 286 289 296 302 306 314 318 320 325 327 340 347 359 3 11 8 358 125 176
232 232 234 238 240 245 250 249 254 251 249 249 250 251 254 256 256 257 260 264 268 266 268 274 278 279 275 273 274 281 285 288 291 295 302 310 315 315 316 318 325 336 333 342 2 9 360 329 167
Height
5825 5826 5828 5829 5833 5831 5831 5833 5833 5833 5833 5832 5831 5831 5830 5829 5828 5830 5827 5825 5824 5822 5821 5820 5819 5818 5817 5816 5814 5813 5811 5810 5810 5808 5806 5805 5803 5802 5799 5798 5797 5795 5794 5793 5792 5791 5790 5789 5788
5824 5826 5828 5829 5831 5830 5831 5832 5833 5833 5833 5832 5831 5831 5829 5828 5826 5826 5825 5823 5822 5820 5820 5819 5818 5817 5815 5813 5811 5811 5810 5809 5807 5806 5805 5802 5800 5799 5796 5794 5793 5791 5790 5788 5786 5785 5784 5783 5782
5824 5825 5828 5829 5830 5830 5831 5832 5832 5833 5833 5832 5831 5831 5829 5828 5826 5825 5824 5822 5821 5820 5819 5818 5817 5815 5813 5812 5811 5810 5808 5807 5805 5803 5801 5799 5798 5795 5793 5791 5789 5787 5785 5783 5782 5779 5778 5777 5775
5823 5825 5827 5828 5829 5829 5830 5831 5831 5832 5832 5831 5831 5831 5830 5828 5826 5825 5823 5822 5821 5820 5818 5817 5815 5813 5812 5811 5810 5808 5806 5804 5802 5800 5798 5796 5794 5791 5789 5788 5786 5783 5781 5778 5776 5774 5772 5770 5768
5821 5823 5825 5827 5828 5828 5829 5829 5830 5831 5831 5831 5830 5830 5829 5827 5826 5825 5823 5821 5820 5818 5817 5816 5815 5813 5811 5809 5807 5805 5803 5802 5799 5797 5795 5793 5791 5789 5787 5784 5781 5779 5777 5774 5771 5769 5767 5764 5761
5819 5822 5824 5825 5826 5827 5828 5828 5829 5829 5830 5831 5831 5829 5828 5826 5825 5823 5822 5820 5818 5817 5816 5814 5812 5810 5808 5806 5803 5801 5799 5797 5796 5794 5792 5790 5789 5787 5784 5781 5778 5775 5772 5769 5766 5762 5759 5756 5753
5818 5819 5822 5823 5824 5825 5826 5828 5828 5829 5830 5830 5830 5829 5828 5826 5824 5823 5821 5819 5817 5816 5814 5812 5810 5807 5803 5801 5798 5796 5795 5794 5792 5790 5789 5787 5785 5783 5780 5777 5773 5770 5766 5762 5759 5755 5751 5746 5743
5815 5817 5819 5821 5822 5824 5825 5826 5828 5828 5829 5829 5829 5828 5827 5825 5824 5822 5821 5819 5816 5814 5813 5811 5809 5806 5804 5802 5798 5796 5793 5792 5790 5788 5786 5784 5780 5778 5776 5773 5769 5764 5760 5756 5751 5745 5740 5735 5731
5812 5815 5817 5818 5819 5821 5823 5825 5826 5827 5829 5829 5829 5828 5826 5825 5824 5822 5821 5820 5818 5815 5812 5810 5807 5805 5803 5800 5797 5794 5793 5791 5788 5786 5783 5781 5777 5774 5772 5768 5763 5759 5754 5749 5742 5736 5730 5725 5720
5810 5812 5814 5816 5817 5819 5821 5823 5824 5826 5827 5827 5827 5827 5826 5824 5823 5822 5820 5819 5817 5815 5812 5809 5806 5803 5800 5798 5795 5793 5790 5788 5786 5784 5780 5777 5773 5770 5767 5763 5759 5753 5747 5740 5732 5725 5719 5713 5707
5807 5809 5810 5812 5814 5817 5819 5820 5822 5824 5825 5826 5826 5825 5825 5824 5822 5821 5819 5817 5816 5814 5811 5808 5805 5802 5799 5796 5793 5790 5787 5785 5783 5780 5777 5774 5771 5767 5763 5758 5753 5747 5740 5732 5722 5715 5708 5700 5692
5803 5804 5806 5809 5811 5813 5816 5818 5819 5821 5822 5823 5823 5824 5823 5823 5821 5820 5818 5816 5814 5812 5809 5806 5803 5800 5797 5794 5791 5787 5785 5783 5780 5776 5773 5770 5767 5763 5759 5754 5748 5740 5732 5723 5713 5704 5696 5686 5678
5797 5800 5802 5804 5807 5810 5813 5815 5816 5818 5819 5819 5820 5821 5821 5820 5819 5818 5816 5815 5812 5810 5808 5805 5802 5798 5795 5792 5788 5785 5782 5780 5777 5774 5770 5767 5763 5759 5754 5749 5742 5734 5724 5714 5703 5693 5684 5673 5663
5793 5794 5797 5800 5802 5806 5809 5811 5813 5814 5816 5816 5816 5817 5818 5817 5816 5815 5813 5812 5810 5808 5806 5803 5800 5796 5793 5789 5786 5783 5780 5777 5774 5771 5768 5764 5760 5755 5750 5744 5736 5727 5717 5706 5694 5683 5672 5660 5648
5787 5788 5791 5795 5797 5801 5803 5807 5810 5811 5812 5813 5813 5813 5815 5815 5814 5813 5811 5809 5807 5805 5803 5800 5797 5794 5791 5787 5783 5780 5777 5774 5771 5768 5764 5761 5756 5751 5745 5738 5731 5721 5711 5698 5686 5674 5660 5646 5633
5779 5782 5785 5790 5792 5795 5796 5803 5803 5805 5808 5810 5810 5810 5811 5811 5811 5811 5809 5807 5805 5803 5800 5797 5794 5792 5788 5785 5781 5777 5774 5771 5768 5764 5761 5757 5752 5747 5740 5733 5725 5715 5704 5692 5680 5667 5650 5635 5621
5771 5776 5781 5784 5785 5787 5789 5795 5797 5799 5802 5805 5805 5806 5807 5807 5807 5807 5805 5804 5802 5800 5798 5795 5792 5788 5785 5781 5778 5774 5771 5768 5765 5760 5757 5752 5748 5744 5736 5728 5720 5711 5699 5688 5675 5660 5644 5627 5614
5767 5771 5775 5776 5778 5779 5783 5789 5788 5792 5795 5799 5801 5801 5802 5803 5803 5802 5801 5801 5799 5796 5795 5793 5789 5785 5782 5778 5775 5772 5768 5765 5761 5757 5753 5749 5745 5740 5733 5725 5717 5707 5696 5685 5673 5658 5641 5625 5614
5756 5760 5764 5768 5771 5774 5778 5783 5783 5783 5789 5792 5795 5797 5798 5798 5798 5797 5796 5795 5794 5792 5790 5788 5785 5782 5779 5775 5772 5769 5766 5762 5759 5755 5750 5747 5742 5737 5731 5723 5715 5705 5695 5684 5673 5659 5643 5628 5622
5746 5750 5755 5759 5762 5766 5769 5776 5777 5776 5782 5785 5787 5789 5791 5792 5792 5792 5791 5791 5790 5789 5786 5784 5781 5779 5775 5772 5769 5766 5763 5759 5756 5752 5748 5744 5740 5735 5729 5721 5714 5704 5694 5685 5676 5662 5650 5637 5633
5738 5742 5748 5751 5754 5757 5760 5767 5770 5770 5772 5778 5781 5782 5784 5785 5785 5786 5786 5786 5785 5783 5781 5779 5777 5775 5771 5768 5765 5763 5759 5757 5754 5750 5746 5742 5737 5732 5727 5720 5712 5704 5695 5688 5680 5668 5660 5651 5647
5728 5734 5737 5740 5743 5747 5752 5756 5762 5764 5765 5769 5774 5776 5776 5778 5779 5779 5780 5780 5779 5778 5776 5774 5773 5770 5767 5765 5762 5759 5756 5754 5751 5747 5744 5740 5735 5730 5725 5719 5712 5704 5697 5691 5684 5675 5667 5663 5660
5721 5725 5727 5730 5734 5737 5742 5743 5755 5756 5759 5762 5765 5768 5770 5771 5772 5773 5773 5773 5773 5772 5771 5770 5769 5766 5763 5761 5758 5756 5753 5751 5748 5745 5742 5738 5734 5729 5725 5719 5712 5705 5699 5694 5689 5682 5674 5671 5670
5706 5712 5715 5719 5722 5725 5732 5735 5741 5750 5754 5755 5757 5759 5761 5764 5765 5766 5767 5767 5767 5766 5766 5765 5764 5762 5759 5757 5755 5753 5750 5748 5746 5743 5740 5736 5732 5728 5724 5719 5712 5706 5701 5696 5693 5688 5684 5679 5677
5693 5698 5702 5706 5709 5716 5723 5729 5735 5742 5747 5748 5749 5751 5753 5756 5757 5759 5759 5760 5761 5760 5760 5759 5758 5756 5754 5753 5751 5750 5747 5744 5743 5740 5737 5733 5730 5727 5723 5719 5713 5707 5702 5698 5696 5692 5690 5685 5683
5687 5692 5696 5699 5702 5711 5713 5718 5727 5732 5737 5740 5741 5744 5746 5748 5750 5752 5753 5754 5754 5754 5753 5753 5752 5751 5749 5748 5746 5745 5743 5741 5739 5737 5735 5732 5728 5725 5722 5719 5713 5708 5704 5700 5697 5696 5693 5690 5688
5674 5679 5687 5688 5692 5697 5702 5710 5717 5721 5725 5730 5734 5737 5739 5741 5743 5744 5745 5746 5747 5746 5747 5747 5746 5745 5744 5743 5742 5740 5739 5737 5736 5734 5732 5729 5726 5724 5721 5717 5713 5710 5706 5701 5699 5696 5695 5693 5691
5663 5672 5675 5677 5681 5684 5691 5698 5706 5713 5718 5722 5725 5728 5731 5733 5735 5736 5737 5739 5739 5739 5740 5739 5739 5739 5738 5737 5737 5736 5734 5733 5732 5731 5729 5727 5724 5722 5720 5716 5712 5709 5706 5702 5699 5698 5696 5695 5693
5650 5655 5661 5668 5671 5675 5682 5689 5699 5705 5710 5713 5716 5719 5722 5725 5726 5728 5729 5730 5731 5732 5732 5732 5732 5732 5731 5732 5731 5730 5729 5728 5727 5727 5725 5723 5721 5719 5717 5715 5712 5709 5707 5703 5700 5698 5697 5697 5695
5636 5645 5652 5656 5665 5668 5673 5683 5690 5695 5700 5704 5707 5711 5714 5716 5717 5719 5720 5722 5723 5724 5724 5725 5725 5724 5724 5725 5725 5724 5724 5723 5722 5722 5721 5719 5718 5716 5715 5712 5710 5707 5705 5704 5700 5698 5697 5697 5695